Date,TemperatureHighF,TemperatureAvgF,TemperatureLowF,DewpointHighF,DewpointAvgF,DewpointLowF,HumidityHigh,HumidityAvg,HumidityLow,PressureMaxIn,PressureMinIn,WindSpeedMaxMPH,WindSpeedAvgMPH,GustSpeedMaxMPH,PrecipitationSumIn
2013-1-1,22.5,11.5,-8.2,17.8,7.0,-13.5,87,82,76,30.27,29.97,8,2,14,0.00
2013-1-2,30.8,18.8,9.9,25.1,14.3,4.9,91,83,70,30.19,29.89,10,3,19,0.01
2013-1-3,19.4,11.1,2.5,13.8,5.8,-2.3,86,79,71,30.31,30.03,8,3,18,0.00
2013-1-4,29.8,21.1,9.7,17.8,13.1,6.1,87,72,57,30.10,30.01,6,1,13,0.00
2013-1-5,23.4,12.0,3.6,14.2,6.3,-0.7,87,78,62,30.12,29.88,9,2,18,0.00
2013-1-6,22.5,14.2,7.6,16.3,8.9,4.2,87,79,66,30.21,29.85,9,2,18,0.00
2013-1-7,38.3,28.9,22.2,26.4,21.3,16.1,84,73,61,29.95,29.82,8,2,18,0.00
2013-1-8,35.7,25.5,16.8,28.0,20.6,13.1,87,82,73,29.94,29.70,7,2,16,0.00
2013-1-9,35.5,30.9,27.7,27.7,22.7,19.3,81,72,58,30.30,29.93,10,3,22,0.00
2013-1-10,38.1,34.7,30.4,32.2,28.3,22.8,98,78,56,30.15,29.61,10,5,20,0.23
2013-1-11,35.0,32.0,18.3,34.7,31.4,15.7,99,98,89,29.61,29.36,10,3,18,0.03
2013-1-12,18.1,7.9,3.2,15.4,1.4,-3.2,90,74,63,30.10,29.47,12,4,27,0.00
2013-1-13,9.7,4.4,-0.4,2.8,-2.8,-7.3,78,72,61,30.23,30.08,9,3,16,0.00
2013-1-14,9.5,4.7,-1.5,2.4,-1.9,-7.0,82,74,61,30.39,30.22,5,1,8,0.00
2013-1-15,25.2,14.3,3.2,14.7,6.4,-1.6,83,71,59,30.23,29.72,9,3,18,0.00
2013-1-16,36.3,22.2,1.0,32.2,16.5,-9.3,93,78,57,30.28,29.66,11,4,18,0.02
2013-1-17,24.2,11.4,-1.1,15.5,2.2,-12.9,77,66,55,30.38,30.16,8,2,14,0.00
2013-1-18,40.7,30.5,16.5,30.0,24.4,9.4,88,78,62,30.16,29.73,10,2,17,0.00
2013-1-19,39.3,17.3,0.0,30.8,10.2,-7.4,87,73,57,30.31,29.70,16,7,35,0.00
2013-1-20,10.0,2.0,-7.5,2.5,-6.2,-19.0,77,68,56,30.41,30.30,10,4,21,0.00
2013-1-21,1.0,-6.2,-11.7,-10.4,-15.6,-20.4,71,63,56,30.37,30.28,10,3,20,0.00
2013-1-22,5.5,-2.3,-11.7,-1.0,-10.5,-18.2,74,67,55,30.36,30.17,4,1,7,0.00
2013-1-23,8.5,1.4,-10.3,3.7,-6.3,-19.6,84,69,56,30.60,30.13,14,4,24,0.00
2013-1-24,13.1,1.7,-10.3,5.5,-8.3,-19.4,71,62,57,30.62,30.06,10,3,24,0.00
2013-1-25,20.3,8.9,-0.7,14.4,0.6,-7.0,78,68,57,30.30,29.96,13,4,24,0.00
2013-1-26,21.3,9.1,-3.6,11.5,1.2,-9.5,76,70,60,30.30,29.97,7,2,17,0.00
2013-1-27,32.0,28.4,18.1,30.6,23.9,11.5,96,83,70,29.97,29.76,5,1,12,0.04
2013-1-28,36.3,32.5,30.5,34.0,31.5,30.0,98,96,90,29.84,29.63,4,0,7,0.00
2013-1-29,30.8,25.0,19.8,30.3,22.1,14.5,98,89,76,29.84,29.59,12,4,21,0.03
2013-1-30,19.7,8.8,-3.8,14.3,2.5,-10.8,80,75,70,29.88,29.78,14,6,25,0.00
2013-1-31,-3.8,-8.1,-11.7,-10.5,-16.2,-19.9,72,67,62,30.31,29.88,12,5,25,0.00
2013-2-1,9.4,-2.1,-14.3,4.8,-9.4,-21.5,82,71,59,30.31,29.99,5,1,10,0.00
2013-2-2,15.6,7.2,-0.9,12.4,2.2,-5.6,87,80,68,30.16,29.92,12,2,25,0.02
2013-2-3,15.2,11.5,6.7,8.5,5.7,1.3,85,77,69,30.11,29.91,9,2,19,0.03
2013-2-4,20.8,10.4,0.6,17.3,5.3,-4.1,91,80,66,30.06,29.68,8,2,12,0.02
2013-2-5,30.8,19.0,9.4,29.0,14.1,3.4,95,81,70,30.07,29.65,11,2,18,0.01
2013-2-6,33.5,20.3,5.8,26.5,15.3,1.2,86,81,74,30.06,29.81,8,2,18,0.00
2013-2-7,26.1,22.9,19.4,21.7,18.9,15.0,92,84,76,30.28,29.99,7,2,14,0.00
2013-2-8,26.7,20.0,9.9,20.9,15.3,6.3,89,82,68,30.31,30.05,8,2,18,0.00
2013-2-9,32.0,28.8,22.7,29.7,25.9,19.7,94,89,85,30.06,29.79,11,4,20,0.07
2013-2-10,30.1,27.5,25.1,28.6,26.1,23.2,96,94,92,29.79,29.32,12,5,22,0.42
2013-2-11,25.1,20.9,17.2,23.4,17.3,12.9,93,86,79,30.05,29.52,11,5,27,0.00
2013-2-12,30.5,22.0,12.8,20.9,16.2,9.7,87,79,64,30.03,29.82,11,2,14,0.00
2013-2-13,37.0,27.5,17.3,31.7,23.7,13.8,95,86,66,29.82,29.57,8,2,18,0.02
2013-2-14,28.2,18.0,3.8,26.4,13.4,-1.2,93,82,69,30.25,29.69,11,4,21,0.00
2013-2-15,15.4,7.8,0.2,7.4,2.1,-4.2,83,77,64,30.34,30.25,7,2,13,0.00
2013-2-16,18.3,10.7,0.6,11.6,5.9,-3.6,85,81,73,30.25,30.01,5,1,7,0.00
2013-2-17,34.8,25.2,11.2,29.0,20.2,7.8,90,81,73,30.02,29.50,16,4,18,0.00
2013-2-18,34.5,16.4,-1.5,31.0,11.6,-7.5,90,81,69,30.02,29.50,14,7,31,0.00
2013-2-19,-0.5,-5.3,-11.0,-6.0,-12.4,-18.0,77,70,65,30.42,30.01,18,7,26,0.00
2013-2-20,6.4,-4.1,-15.3,-2.5,-11.4,-21.9,75,70,61,30.44,30.33,4,1,7,0.00
2013-2-21,18.1,10.1,-0.9,10.7,2.8,-6.6,79,72,67,30.36,30.06,9,2,12,0.00
2013-2-22,23.0,18.3,11.8,18.1,14.6,8.7,90,85,73,30.06,29.90,10,2,13,0.04
2013-2-23,24.6,13.8,4.7,13.7,7.6,-0.4,87,77,53,29.94,29.86,5,1,7,0.00
2013-2-24,22.8,9.9,-3.3,12.8,4.1,-7.9,90,77,62,30.09,29.94,4,0,6,0.00
2013-2-25,26.2,18.2,7.4,22.9,15.5,3.8,93,89,85,30.10,30.02,3,0,5,0.00
2013-2-26,26.4,20.7,16.0,23.0,18.3,13.3,94,91,85,30.05,29.94,10,2,14,0.00
2013-2-27,28.0,19.9,13.1,21.2,15.3,8.9,89,82,65,30.10,29.96,12,5,24,0.00
2013-2-28,26.7,22.3,16.7,21.4,18.4,14.0,89,85,79,30.24,30.09,6,2,12,0.00
2013-3-1,25.5,18.5,10.4,16.5,12.7,6.9,87,78,65,30.37,30.23,8,2,12,0.00
2013-3-2,24.2,15.2,1.5,17.7,9.1,-2.6,87,77,60,30.34,30.08,7,1,12,0.00
2013-3-3,33.2,24.6,17.0,24.1,18.8,13.0,90,79,67,30.08,29.85,11,3,14,0.01
2013-3-4,27.4,24.8,23.1,25.3,22.7,20.6,96,92,90,29.94,29.80,13,3,13,0.11
2013-3-5,28.0,23.4,17.3,24.4,20.6,13.8,95,89,82,30.34,29.91,15,4,22,0.06
2013-3-6,23.7,20.1,18.4,16.6,15.2,14.4,86,81,72,30.41,30.30,6,1,12,0.00
2013-3-7,25.1,20.5,16.8,18.6,15.5,13.3,87,81,72,30.31,30.16,8,3,17,0.00
2013-3-8,32.2,23.3,13.8,30.9,19.1,10.7,95,84,70,30.23,29.98,6,2,11,0.17
2013-3-9,34.4,32.2,26.5,33.6,31.2,24.0,97,96,90,29.98,29.67,10,2,19,0.88
2013-3-10,26.7,22.5,17.3,24.2,19.0,13.0,90,86,81,30.06,29.86,13,7,22,0.00
2013-3-11,26.1,17.8,6.4,20.3,11.0,1.5,83,75,60,29.99,29.82,8,3,16,0.00
2013-3-12,28.5,22.8,16.2,23.8,17.2,12.2,85,79,69,30.27,29.86,12,5,21,0.00
2013-3-13,27.7,19.2,8.3,23.2,12.7,4.2,84,76,60,30.38,30.12,10,2,20,0.00
2013-3-14,38.4,31.2,25.1,28.7,25.1,21.0,90,78,65,30.12,29.99,6,1,8,0.00
2013-3-15,33.6,29.8,25.5,30.2,27.4,23.2,96,90,86,30.01,29.80,8,2,11,0.00
2013-3-16,26.8,13.3,5.1,25.3,8.3,-0.9,95,80,69,30.27,29.94,12,4,14,0.00
2013-3-17,28.8,15.9,3.4,26.8,9.1,-2.5,94,74,63,30.27,29.64,11,3,19,0.03
2013-3-18,32.9,18.7,9.0,31.4,12.4,1.7,96,76,65,29.96,29.57,20,7,28,0.03
2013-3-19,17.5,10.4,3.6,5.3,1.1,-4.0,77,66,52,30.30,29.96,11,4,25,0.00
2013-3-20,18.3,10.3,3.0,5.2,0.7,-3.7,77,65,49,30.32,30.15,10,4,20,0.00
2013-3-21,20.9,10.9,-0.7,10.6,2.9,-5.9,80,70,56,30.15,30.04,6,1,8,0.00
2013-3-22,27.6,16.0,2.1,14.6,8.1,-2.4,82,71,55,30.10,30.05,5,1,8,0.00
2013-3-23,28.0,21.1,13.9,17.4,13.4,9.4,83,72,54,30.17,30.08,6,2,12,0.00
2013-3-24,30.4,22.1,14.6,26.2,17.7,11.0,87,83,74,30.16,30.04,11,4,20,0.00
2013-3-25,30.2,24.9,18.3,21.8,18.9,13.8,87,78,65,30.31,30.11,13,5,21,0.00
2013-3-26,30.5,20.2,12.1,19.5,14.1,8.5,85,77,63,30.34,30.26,6,2,11,0.00
2013-3-27,37.0,25.4,13.0,28.6,20.0,10.1,92,81,68,30.31,30.26,6,2,10,0.00
2013-3-28,40.6,34.3,27.0,33.8,28.7,21.8,91,80,67,30.29,30.19,6,2,10,0.00
2013-3-29,50.9,40.2,30.1,42.5,35.5,28.6,95,84,72,30.23,29.94,6,1,12,0.00
2013-3-30,43.7,37.9,31.9,38.7,34.2,30.2,98,87,74,29.96,29.89,9,3,16,0.00
2013-3-31,33.8,29.1,20.6,31.4,22.3,14.1,96,76,57,30.20,29.88,15,6,28,0.00
2013-4-1,31.0,23.1,16.4,17.6,14.1,10.7,81,69,55,30.32,30.20,11,3,17,0.00
2013-4-2,35.0,26.6,18.3,20.6,17.1,14.0,89,69,44,30.34,30.27,8,2,12,0.00
2013-4-3,57.9,38.5,22.5,39.6,28.0,18.7,87,67,46,30.34,29.97,12,4,26,0.00
2013-4-4,48.0,36.5,27.0,33.8,28.1,22.5,84,72,55,30.23,29.97,11,4,20,0.00
2013-4-5,37.1,30.8,24.0,31.0,25.8,20.2,89,81,68,30.24,29.74,11,4,20,0.00
2013-4-6,45.6,39.1,32.6,39.1,33.9,29.5,90,81,70,29.84,29.54,12,4,20,0.00
2013-4-7,45.2,36.8,31.3,41.2,33.0,28.0,97,86,72,29.93,29.71,8,2,12,0.15
2013-4-8,43.0,39.8,34.1,41.0,38.0,30.3,99,93,84,30.09,29.69,9,4,14,0.00
2013-4-9,33.8,29.1,23.1,30.3,22.9,20.1,91,78,62,30.20,30.03,13,7,24,0.13
2013-4-10,34.5,31.8,29.9,29.8,26.2,22.5,96,81,62,30.19,29.91,13,5,25,0.17
2013-4-11,31.9,29.9,27.3,31.7,29.0,26.4,99,96,94,29.91,29.70,12,6,19,0.36
2013-4-12,33.5,29.6,26.5,27.7,26.0,24.5,95,86,76,29.90,29.75,10,4,16,0.00
2013-4-13,34.1,30.3,26.2,26.4,25.0,23.7,93,81,70,29.93,29.87,7,2,13,0.00
2013-4-14,34.5,30.8,28.2,33.7,28.9,25.3,97,93,82,29.89,29.42,14,4,18,0.38
2013-4-15,39.7,34.4,31.3,30.6,27.9,25.3,87,77,64,30.04,29.41,18,6,25,0.00
2013-4-16,38.7,32.7,26.2,28.3,25.8,22.3,85,76,62,30.32,30.02,12,3,13,0.00
2013-4-17,37.8,33.8,31.7,31.9,29.5,26.5,97,84,74,30.33,30.01,9,4,14,0.09
2013-4-18,32.2,31.2,28.3,31.4,30.2,27.6,98,96,93,30.01,29.73,13,4,22,0.42
2013-4-19,34.2,28.7,23.6,27.3,23.6,19.8,96,81,66,30.07,29.70,16,5,24,0.00
2013-4-20,36.0,28.0,17.3,28.9,20.0,13.8,95,73,46,30.26,30.07,7,2,14,0.03
2013-4-21,44.9,37.1,30.1,39.8,33.6,28.8,96,87,76,30.23,30.00,10,3,21,0.20
2013-4-22,33.9,30.6,27.4,30.3,28.0,24.8,96,90,83,30.27,30.17,13,4,16,0.17
2013-4-23,37.7,28.8,19.5,25.4,22.1,16.8,90,76,55,30.27,30.09,9,3,17,0.00
2013-4-24,42.6,33.6,25.6,35.4,27.1,21.8,94,78,56,30.09,29.95,10,3,20,0.03
2013-4-25,53.6,38.2,24.6,39.5,27.8,20.5,84,67,45,30.20,29.92,13,3,18,0.00
2013-4-26,67.8,54.0,39.6,44.9,36.8,31.7,83,56,27,30.14,29.88,10,2,16,0.00
2013-4-27,75.3,58.6,37.7,41.1,36.1,32.5,85,48,23,30.15,29.83,9,2,17,0.00
2013-4-28,79.8,61.8,51.2,48.2,45.3,38.1,78,57,31,29.85,29.68,10,4,17,0.00
2013-4-29,74.6,57.7,38.8,51.1,36.7,30.2,75,49,24,29.88,29.45,8,2,17,0.00
2013-4-30,66.9,59.5,48.0,55.0,40.4,26.0,81,52,24,30.03,29.33,10,5,24,0.00
2013-5-1,47.5,38.7,34.1,32.3,25.5,19.7,71,59,52,30.55,30.03,13,6,25,0.00
2013-5-2,45.2,37.0,29.6,26.7,24.5,22.6,81,62,43,30.64,30.48,16,5,26,0.00
2013-5-3,48.7,37.5,25.5,28.2,23.0,20.4,83,58,35,30.48,30.18,14,5,22,0.00
2013-5-4,40.6,37.5,35.0,37.6,34.7,28.6,96,90,63,30.22,30.15,12,4,19,0.03
2013-5-5,50.5,43.5,37.8,42.8,40.1,37.3,99,88,74,30.21,30.13,7,2,11,0.00
2013-5-6,69.6,54.6,42.0,49.5,44.5,39.6,91,71,46,30.15,30.03,6,1,12,0.00
2013-5-7,78.0,62.3,42.6,49.1,43.2,39.3,91,55,27,30.08,29.93,9,1,14,0.00
2013-5-8,64.0,58.3,54.9,57.1,53.4,46.8,96,85,55,30.03,29.96,7,1,11,0.36
2013-5-9,58.4,54.0,47.2,54.1,50.1,37.1,96,87,68,30.15,30.00,10,4,17,0.19
2013-5-10,68.8,52.4,37.4,48.4,33.9,23.7,81,53,23,30.16,29.91,14,3,28,0.00
2013-5-11,52.6,45.3,37.7,34.7,24.5,16.3,72,47,25,30.25,30.05,17,6,28,0.00
2013-5-12,61.0,47.6,31.3,25.7,21.8,17.9,68,39,19,30.26,30.09,8,2,16,0.00
2013-5-13,86.0,65.6,46.0,51.7,36.9,21.8,48,35,22,30.09,29.65,14,3,25,0.00
2013-5-14,93.8,73.7,54.6,52.9,44.1,31.7,66,38,15,29.81,29.53,11,3,25,0.00
2013-5-15,80.9,64.8,50.8,53.3,46.1,40.9,75,53,25,29.96,29.81,7,2,14,0.00
2013-5-16,85.0,69.8,51.7,52.5,43.5,38.3,76,44,20,29.92,29.80,7,1,14,0.00
2013-5-17,71.3,63.2,59.1,61.3,53.0,39.6,93,71,38,29.92,29.86,7,2,12,0.01
2013-5-18,82.7,70.9,59.3,66.7,61.3,56.7,94,74,51,29.90,29.73,9,2,22,0.01
2013-5-19,76.2,67.8,61.6,65.4,62.4,59.7,97,84,64,29.73,29.55,11,2,20,0.58
2013-5-20,68.8,62.3,60.0,61.3,57.4,53.2,99,85,59,29.57,29.48,10,2,21,0.09
2013-5-21,60.0,54.2,47.7,57.4,52.9,46.9,99,95,84,29.76,29.49,7,2,13,0.67
2013-5-22,53.9,48.8,45.7,49.6,46.4,44.0,97,92,74,30.06,29.76,13,4,26,0.27
2013-5-23,64.5,53.5,43.3,44.1,39.4,31.7,92,62,31,30.32,30.06,8,1,16,0.01
2013-5-24,69.1,55.1,43.7,54.9,42.0,33.2,85,64,31,30.32,30.12,10,1,18,0.12
2013-5-25,58.2,54.9,52.0,52.4,49.6,46.9,88,82,69,30.17,30.09,7,2,17,0.00
2013-5-26,54.2,51.7,48.6,50.4,48.1,45.1,93,88,81,30.17,30.00,6,2,13,0.03
2013-5-27,61.5,56.0,51.8,55.3,52.6,49.8,98,88,79,30.03,29.81,4,1,7,0.00
2013-5-28,67.1,58.3,54.3,57.8,54.9,53.2,97,89,72,29.81,29.70,3,0,5,0.00
2013-5-29,80.4,64.1,53.4,70.1,60.2,52.6,100,88,62,29.81,29.54,9,1,22,1.13
2013-5-30,77.1,67.9,62.9,63.6,60.5,57.6,96,78,53,29.59,29.46,12,3,22,0.13
2013-5-31,67.1,62.2,57.1,60.7,52.9,49.7,92,72,57,29.54,29.43,11,4,25,0.11
2013-6-1,59.9,55.9,52.3,56.3,50.5,45.0,91,82,71,30.03,29.54,15,3,21,0.00
2013-6-2,67.8,57.2,46.5,47.1,41.9,37.5,87,59,35,30.13,30.02,5,1,11,0.00
2013-6-3,68.8,58.9,44.9,49.4,42.9,39.6,85,58,37,30.04,29.89,5,1,11,0.01
2013-6-4,63.2,58.9,54.8,58.7,54.1,44.6,96,85,56,30.00,29.90,7,1,16,0.21
2013-6-5,65.8,59.0,50.5,56.2,50.7,47.4,94,75,56,30.01,29.96,6,1,14,0.00
2013-6-6,60.7,55.8,51.2,51.2,49.6,48.0,92,80,68,30.06,30.01,6,1,10,0.00
2013-6-7,69.9,58.4,45.9,51.6,47.9,44.6,98,71,45,30.07,29.90,4,0,7,0.00
2013-6-8,64.7,59.0,55.7,56.4,52.2,47.1,92,79,62,29.91,29.83,5,1,13,0.14
2013-6-9,63.5,58.7,56.2,59.9,57.0,55.3,98,94,86,29.87,29.72,6,1,12,1.17
2013-6-10,77.2,64.1,54.9,60.8,57.3,54.3,99,81,52,29.91,29.81,4,0,10,0.01
2013-6-11,79.4,67.4,58.8,65.9,59.6,53.6,97,78,47,29.96,29.80,6,1,12,0.01
2013-6-12,68.4,62.9,57.0,62.3,57.0,52.8,95,81,63,30.04,29.80,8,1,20,1.16
2013-6-13,79.3,66.6,52.7,57.6,53.8,50.0,91,66,40,30.14,30.03,5,0,8,0.00
2013-6-14,82.7,71.0,62.7,65.2,60.2,55.6,85,69,51,30.07,29.81,7,2,20,0.00
2013-6-15,83.1,71.7,62.1,64.1,56.9,46.3,95,64,31,29.95,29.84,6,1,13,0.00
2013-6-16,85.2,71.7,55.8,57.0,51.6,45.5,81,53,28,29.96,29.88,6,1,18,0.00
2013-6-17,81.1,70.8,59.4,58.6,54.7,52.1,79,58,40,30.01,29.93,6,1,16,0.00
2013-6-18,79.4,67.3,56.0,60.4,56.9,52.4,97,72,41,30.11,30.00,7,0,16,0.12
2013-6-19,88.3,75.2,61.1,61.8,57.7,51.0,89,59,30,30.03,29.89,5,0,12,0.00
2013-6-20,87.1,78.9,70.1,68.4,65.2,60.7,80,64,49,29.96,29.77,9,2,18,0.00
2013-6-21,81.7,69.5,62.9,69.4,64.0,60.6,96,83,64,30.01,29.73,18,2,31,1.52
2013-6-22,81.5,71.1,63.4,69.3,65.2,61.6,97,83,60,29.98,29.78,7,0,14,0.34
2013-6-23,81.9,74.1,64.0,68.1,63.0,57.8,99,70,45,29.90,29.75,5,1,17,1.05
2013-6-24,77.1,69.5,60.2,71.3,65.1,58.5,96,86,75,29.92,29.77,5,0,13,0.30
2013-6-25,88.8,76.2,65.3,75.3,69.5,64.1,97,81,61,29.81,29.68,5,0,14,0.00
2013-6-26,87.3,76.7,66.6,70.2,65.8,57.2,98,72,39,29.88,29.67,7,1,22,0.26
2013-6-27,85.6,76.2,66.3,65.7,60.2,51.2,93,61,32,29.93,29.84,8,1,18,0.01
2013-6-28,80.0,73.0,65.5,60.7,57.7,54.0,75,60,41,29.93,29.88,13,3,22,0.00
2013-6-29,79.8,70.5,62.4,61.3,56.5,49.9,88,63,37,30.03,29.87,11,2,20,0.00
2013-6-30,80.9,69.7,57.9,55.6,51.9,45.2,86,57,30,30.16,30.03,7,1,12,0.00
2013-7-1,87.1,72.8,58.7,60.8,54.9,47.5,94,58,27,30.23,30.16,4,0,8,0.00
2013-7-2,87.5,73.0,61.0,63.0,58.7,50.5,91,64,30,30.18,30.06,6,0,12,0.00
2013-7-3,85.6,73.3,61.3,61.1,55.1,47.0,83,57,28,30.08,29.94,4,0,10,0.00
2013-7-4,88.5,76.5,62.9,61.1,57.0,52.3,80,53,31,29.95,29.80,10,2,21,0.00
2013-7-5,89.6,79.6,70.6,70.1,62.0,56.1,68,56,39,29.84,29.78,8,2,16,0.00
2013-7-6,84.0,76.2,67.8,73.9,68.5,62.9,96,78,64,29.86,29.79,3,0,8,0.84
2013-7-7,89.8,78.7,71.0,75.8,69.3,61.8,90,74,43,29.95,29.82,5,0,12,0.00
2013-7-8,90.5,81.1,64.7,69.4,65.9,59.6,85,61,44,30.02,29.93,3,0,7,0.00
2013-7-9,84.0,74.6,63.8,70.4,66.7,60.7,99,78,56,30.04,29.76,10,1,26,0.88
2013-7-10,81.3,69.5,58.5,61.2,58.2,54.7,92,70,43,30.13,30.04,4,0,5,0.00
2013-7-11,85.0,73.2,60.4,64.5,60.9,56.9,93,68,47,30.11,29.93,6,1,16,0.00
2013-7-12,89.8,79.2,68.6,71.1,65.2,59.3,74,63,51,29.94,29.82,8,2,19,0.00
2013-7-13,83.5,76.2,69.1,71.8,68.0,65.2,91,76,65,30.02,29.86,7,1,16,0.02
2013-7-14,74.8,68.6,65.5,68.5,66.2,64.0,98,93,70,30.19,29.99,4,0,10,1.19
2013-7-15,86.0,75.9,65.9,70.1,67.2,63.5,99,77,49,30.22,30.13,4,0,11,0.01
2013-7-16,88.1,79.0,70.1,71.8,68.4,64.9,92,72,48,30.22,30.14,8,1,16,0.00
2013-7-17,90.2,80.2,69.9,73.4,69.2,65.4,86,70,51,30.25,30.11,5,1,11,0.00
2013-7-18,90.7,81.7,72.2,73.3,70.5,67.7,87,70,52,30.11,29.79,8,2,20,0.00
2013-7-19,83.5,76.7,70.4,71.1,64.3,59.7,85,67,47,29.96,29.80,10,1,16,0.00
2013-7-20,81.3,71.1,62.7,65.6,62.9,60.6,95,77,56,29.99,29.92,5,0,12,0.00
2013-7-21,87.3,74.2,62.7,69.7,64.5,58.7,93,73,49,29.95,29.77,3,0,10,0.02
2013-7-22,79.6,72.8,63.2,69.6,63.8,56.6,96,75,57,29.93,29.70,10,2,18,0.08
2013-7-23,77.2,66.4,56.2,58.8,56.3,53.5,94,72,47,30.04,29.93,5,0,8,0.00
2013-7-24,80.7,69.9,60.2,61.6,58.4,55.0,92,69,44,30.09,29.98,4,0,8,0.00
2013-7-25,80.4,70.1,63.0,67.0,63.3,57.0,98,80,54,30.02,29.94,6,0,11,0.62
2013-7-26,69.3,62.5,55.5,57.7,52.3,48.0,89,70,51,30.14,29.98,8,2,19,0.00
2013-7-27,69.6,59.9,51.7,49.6,47.0,43.3,87,64,40,30.16,30.00,7,1,18,0.00
2013-7-28,74.1,61.3,48.1,55.1,49.2,45.0,92,67,42,30.08,30.02,6,1,12,0.00
2013-7-29,76.9,62.9,52.7,63.4,55.1,50.7,96,79,43,30.11,30.06,4,0,11,0.19
2013-7-30,76.5,67.0,60.4,64.9,62.4,59.3,98,86,65,30.10,30.04,3,0,6,0.00
2013-7-31,78.9,67.5,58.8,64.7,59.4,54.0,98,78,46,30.14,30.05,5,0,12,0.04
2013-8-1,81.3,69.2,54.9,63.7,56.5,52.3,93,67,40,30.08,29.92,4,0,10,0.00
2013-8-2,76.9,65.9,56.0,60.1,55.9,50.3,95,72,44,30.09,29.91,4,0,8,0.00
2013-8-3,77.2,64.9,52.6,58.7,52.8,49.1,95,68,41,30.23,30.09,6,1,8,0.00
2013-8-4,76.7,64.3,54.0,60.5,54.0,49.1,88,71,45,30.26,29.96,3,0,8,0.00
2013-8-5,80.9,69.2,62.4,67.5,63.3,60.3,98,83,56,30.03,29.85,6,1,12,0.89
2013-8-6,85.8,70.3,59.9,67.8,62.7,58.8,97,79,50,29.89,29.72,9,1,20,0.03
2013-8-7,76.2,65.7,58.4,61.2,55.9,51.7,96,73,44,30.04,29.87,4,0,11,0.00
2013-8-8,74.6,64.2,57.8,63.2,59.1,53.5,97,84,64,30.07,30.00,4,0,8,0.43
2013-8-9,74.6,64.0,54.2,59.9,54.5,49.8,96,74,45,30.16,30.04,5,1,12,0.00
2013-8-10,76.0,64.5,53.4,62.4,56.4,51.9,96,77,52,30.21,30.07,5,0,8,0.00
2013-8-11,80.7,69.3,62.2,65.2,62.0,59.6,96,79,52,30.09,30.03,4,0,7,0.00
2013-8-12,78.0,67.8,56.8,60.6,56.4,52.5,89,69,43,30.11,30.06,5,1,11,0.00
2013-8-13,76.9,64.6,53.0,57.9,52.4,45.3,90,68,39,30.23,30.11,4,1,8,0.00
2013-8-14,76.3,66.3,52.0,57.8,53.4,47.7,96,66,42,30.21,30.09,4,0,10,0.00
2013-8-15,77.8,66.9,55.5,60.6,57.0,53.6,96,73,47,30.15,30.09,5,0,8,0.00
2013-8-16,75.8,64.8,53.7,59.5,56.8,52.8,97,77,50,30.20,30.14,5,1,11,0.00
2013-8-17,79.8,67.9,55.8,63.9,59.3,53.8,94,75,56,30.17,30.07,7,2,14,0.00
2013-8-18,79.8,68.9,57.8,63.1,59.5,54.6,89,73,55,30.10,29.97,9,2,17,0.00
2013-8-19,86.0,75.0,65.8,72.8,66.7,60.3,88,76,59,30.01,29.86,5,1,12,0.00
2013-8-20,89.2,77.9,67.1,75.9,71.5,65.9,96,82,61,29.89,29.84,5,0,11,0.00
2013-8-21,87.7,77.5,70.1,74.4,69.5,59.2,96,78,45,30.03,29.82,5,1,10,0.00
2013-8-22,82.9,71.1,62.2,60.1,55.5,50.4,85,60,34,30.17,30.03,6,1,11,0.00
2013-8-23,85.2,71.8,57.5,70.6,63.9,54.9,92,77,59,30.14,29.98,5,1,17,0.00
2013-8-24,89.4,79.3,71.6,74.9,71.0,67.9,91,77,55,30.00,29.86,9,2,19,0.00
2013-8-25,91.8,83.3,76.9,77.4,73.3,69.8,85,72,57,29.98,29.92,7,2,19,0.00
2013-8-26,92.0,82.7,73.7,77.7,73.6,70.4,90,75,55,29.97,29.82,5,1,12,0.00
2013-8-27,91.8,81.7,73.0,78.9,74.6,70.2,93,80,63,29.94,29.80,5,0,8,0.00
2013-8-28,90.9,78.5,69.3,75.7,71.9,67.8,96,81,58,30.05,29.94,5,0,13,0.00
2013-8-29,90.9,80.9,72.2,73.9,72.0,68.5,96,76,50,29.98,29.86,7,1,14,0.00
2013-8-30,84.4,75.2,67.4,72.4,67.3,64.1,95,78,53,29.98,29.90,4,1,8,0.00
2013-8-31,90.2,70.9,62.4,71.5,65.3,61.2,97,85,44,29.93,29.74,14,1,31,1.51
2013-9-1,67.8,62.7,55.4,65.7,57.9,52.8,97,85,70,30.06,29.85,7,1,16,0.01
2013-9-2,71.3,59.2,48.9,55.5,52.0,48.1,98,79,52,30.14,30.05,4,0,8,0.01
2013-9-3,80.0,64.5,50.8,65.8,58.0,49.4,95,81,58,30.08,29.99,4,0,9,0.00
2013-9-4,83.8,71.9,60.5,71.4,65.9,59.6,98,83,62,30.15,30.02,5,0,10,0.00
2013-9-5,86.2,73.2,61.0,70.6,64.1,57.2,88,74,52,30.19,30.07,3,0,10,0.00
2013-9-6,92.2,77.7,66.9,73.9,67.1,62.1,93,72,44,30.07,29.85,6,1,12,0.00
2013-9-7,90.2,77.7,67.3,72.0,69.2,66.4,97,77,49,30.01,29.89,6,1,13,0.00
2013-9-8,74.1,68.6,63.7,68.6,64.3,59.8,92,86,77,30.04,29.87,3,0,6,0.00
2013-9-9,90.5,74.9,65.3,74.9,68.0,61.9,98,81,50,29.87,29.65,6,1,13,0.05
2013-9-10,82.7,72.1,65.6,66.2,63.0,57.8,98,76,44,30.02,29.83,5,0,12,0.05
2013-9-11,84.8,70.5,59.9,62.1,55.6,47.8,91,64,30,30.15,30.02,5,1,14,0.00
2013-9-12,73.2,61.2,49.6,53.6,50.4,47.5,94,70,45,30.27,30.15,6,1,17,0.00
2013-9-13,72.8,59.2,46.2,50.4,47.6,44.9,97,69,39,30.27,30.05,4,0,11,0.00
2013-9-14,58.7,55.1,48.6,57.3,51.9,45.2,97,89,74,30.06,29.82,3,0,13,0.50
2013-9-15,67.4,58.1,48.3,56.6,54.0,46.4,99,87,61,30.32,29.86,6,1,13,0.38
2013-9-16,67.3,54.8,44.1,50.2,45.6,40.7,98,75,40,30.39,30.19,3,0,12,0.00
2013-9-17,63.2,56.6,49.7,57.4,53.4,47.8,97,89,79,30.19,29.87,7,2,17,0.00
2013-9-18,85.8,72.0,58.5,71.2,66.2,57.4,100,84,60,29.87,29.63,6,1,16,0.00
2013-9-19,74.4,67.8,56.8,68.8,61.0,50.9,98,80,48,29.92,29.62,8,1,17,1.03
2013-9-20,59.3,54.0,45.6,53.1,49.1,44.0,97,84,58,29.98,29.89,6,1,17,0.06
2013-9-21,66.3,51.8,39.6,48.8,44.4,38.8,99,78,47,30.03,29.89,2,0,5,0.00
2013-9-22,82.3,63.9,49.6,57.4,50.3,45.7,87,65,34,29.90,29.72,7,2,16,0.00
2013-9-23,76.5,65.2,56.1,54.5,52.0,48.3,82,64,39,29.87,29.76,9,2,21,0.00
2013-9-24,72.3,60.7,54.2,57.4,53.3,50.3,93,77,56,29.95,29.87,3,0,8,0.00
2013-9-25,75.3,62.4,51.1,57.0,52.6,49.0,97,74,42,29.94,29.79,6,1,16,0.00
2013-9-26,84.2,70.0,58.8,61.1,57.5,53.5,87,67,42,29.83,29.72,9,2,24,0.00
2013-9-27,78.3,69.2,58.5,67.4,62.6,54.3,95,80,62,29.81,29.72,12,1,14,0.14
2013-9-28,61.3,55.0,47.4,54.6,48.6,41.3,98,80,49,29.93,29.65,8,2,22,0.21
2013-9-29,78.1,60.5,44.1,49.3,44.6,40.2,86,60,31,29.93,29.68,6,1,17,0.00
2013-9-30,82.3,68.1,56.5,53.0,48.9,44.8,70,52,31,29.68,29.53,9,2,20,0.00
2013-10-1,72.8,63.3,50.9,52.5,43.2,33.5,78,51,24,30.01,29.53,7,1,19,0.00
2013-10-2,78.5,56.3,44.0,53.6,44.2,36.5,96,69,28,30.02,29.78,8,2,24,0.50
2013-10-3,54.3,53.0,51.4,54.0,52.3,49.8,99,98,94,29.99,29.86,5,2,11,0.23
2013-10-4,55.7,53.6,52.0,54.6,52.4,50.7,99,96,91,29.99,29.77,7,2,17,0.07
2013-10-5,57.5,48.9,41.0,56.9,42.9,36.3,98,81,58,29.80,29.71,6,1,17,0.03
2013-10-6,54.9,47.0,43.0,47.7,43.5,38.8,99,89,57,29.92,29.73,7,2,19,0.20
2013-10-7,68.3,52.8,40.8,46.3,41.6,35.8,94,70,33,29.99,29.87,3,0,7,0.00
2013-10-8,76.5,62.5,50.0,48.5,45.3,42.6,82,56,31,29.90,29.70,12,4,24,0.00
2013-10-9,76.9,64.2,53.6,53.1,49.1,46.1,79,59,39,29.98,29.84,5,1,12,0.00
2013-10-10,81.1,66.2,55.1,55.8,50.4,47.9,78,59,35,29.96,29.75,10,3,22,0.00
2013-10-11,67.9,60.5,52.3,60.3,52.8,42.8,95,76,59,29.77,29.48,10,3,22,0.28
2013-10-12,58.1,50.6,41.1,43.3,38.4,33.1,82,64,40,30.23,29.70,9,3,21,0.01
2013-10-13,58.1,45.8,32.9,37.8,33.6,30.6,93,65,36,30.42,30.23,3,0,5,0.00
2013-10-14,48.1,45.5,42.3,45.9,40.4,34.5,96,83,62,30.34,29.79,5,1,14,0.87
2013-10-15,48.9,45.8,42.4,47.8,44.8,40.5,98,96,91,29.96,29.65,10,4,22,0.58
2013-10-16,56.2,43.7,32.9,40.7,36.4,31.9,96,77,45,30.01,29.87,6,1,14,0.00
2013-10-17,48.0,39.9,35.8,43.5,37.3,33.3,96,90,84,29.96,29.81,9,1,20,0.12
2013-10-18,50.9,39.6,30.4,38.0,32.3,27.8,95,78,42,30.02,29.85,6,1,12,0.01
2013-10-19,43.3,37.8,32.4,38.2,30.7,24.0,94,77,50,29.85,29.73,10,1,19,0.00
2013-10-20,44.7,37.9,34.2,41.5,33.9,27.6,93,85,74,29.98,29.60,8,2,18,0.03
2013-10-21,41.6,34.4,27.4,28.8,24.1,21.0,83,66,48,30.01,29.95,6,1,16,0.00
2013-10-22,38.7,32.9,26.2,30.0,25.6,22.6,88,75,57,30.08,29.97,7,1,13,0.00
2013-10-23,38.8,34.8,31.9,28.7,25.5,21.3,86,69,49,30.17,30.03,10,1,17,0.00
2013-10-24,45.3,35.8,27.7,32.7,29.0,23.8,92,77,55,30.34,30.17,10,1,18,0.00
2013-10-25,62.4,42.1,24.5,44.3,32.9,21.5,90,72,49,30.33,29.81,7,2,18,0.00
2013-10-26,48.3,38.9,29.5,36.5,28.1,24.8,83,66,52,30.18,29.91,9,2,21,0.00
2013-10-27,54.8,40.0,28.5,36.2,29.4,23.8,84,68,45,30.15,29.80,10,3,17,0.00
2013-10-28,41.3,34.1,26.8,27.7,23.8,19.8,84,67,44,30.43,30.15,7,3,12,0.00
2013-10-29,36.3,34.2,31.9,33.4,29.3,23.2,92,82,70,30.39,30.07,6,1,10,0.00
2013-10-30,42.1,38.6,35.1,41.6,37.9,33.1,99,97,91,30.07,29.72,3,0,6,0.08
2013-10-31,40.3,38.4,36.0,38.1,36.0,34.2,98,91,84,29.73,29.46,4,1,11,0.00
2013-11-1,49.1,41.4,34.1,40.0,36.8,31.8,92,84,67,29.93,29.49,7,1,16,0.00
2013-11-2,52.3,40.9,30.7,37.5,33.9,29.0,94,77,52,30.08,29.93,4,1,11,0.00
2013-11-3,56.4,45.7,34.5,36.9,32.2,28.0,87,62,35,30.03,29.73,13,5,31,0.00
2013-11-4,48.9,41.4,32.2,38.3,33.0,26.3,89,73,50,30.14,29.72,9,2,19,0.02
2013-11-5,36.7,32.4,29.6,28.9,25.7,21.0,94,77,53,30.25,30.09,6,1,12,0.02
2013-11-6,42.6,32.9,25.2,33.4,26.0,21.2,90,76,51,30.17,30.09,7,1,12,0.00
2013-11-7,47.5,32.8,24.6,28.0,24.8,18.5,93,75,41,30.27,30.15,8,1,18,0.00
2013-11-8,45.7,36.0,25.5,41.4,29.5,22.2,90,78,53,30.15,29.59,10,3,21,0.00
2013-11-9,45.6,40.3,35.0,39.7,30.7,24.5,87,69,50,30.29,29.68,12,5,30,0.00
2013-11-10,36.1,32.2,23.0,30.2,26.1,19.7,87,78,69,30.34,30.09,9,2,16,0.00
2013-11-11,30.1,17.8,10.4,26.2,8.7,4.9,86,67,53,30.76,30.19,12,6,24,0.00
2013-11-12,33.6,19.3,5.8,15.0,7.9,1.5,84,64,32,30.78,30.34,7,2,14,0.00
2013-11-13,56.4,37.9,23.3,35.8,27.1,13.7,80,66,44,30.34,29.86,8,2,17,0.00
2013-11-14,53.1,41.6,32.6,37.5,33.2,28.4,85,73,54,29.87,29.79,9,1,18,0.00
2013-11-15,58.5,40.3,25.6,38.8,32.3,23.3,93,75,45,29.81,29.52,11,3,20,0.00
2013-11-16,47.2,41.8,36.1,46.4,39.8,33.6,97,93,77,29.52,29.23,7,2,14,0.00
2013-11-17,44.4,37.7,30.8,40.0,33.4,23.8,95,85,74,29.93,29.34,12,4,24,0.00
2013-11-18,37.3,29.5,24.5,24.3,21.4,18.8,83,72,57,30.20,29.93,12,2,19,0.00
2013-11-19,53.4,39.8,23.9,35.2,28.2,19.5,84,65,43,30.17,29.73,13,5,25,0.00
2013-11-20,51.2,42.3,27.3,33.9,30.4,23.2,88,64,50,30.06,29.73,12,3,22,0.00
2013-11-21,27.3,18.9,13.6,23.2,12.1,5.2,88,74,66,30.59,30.06,13,7,26,0.00
2013-11-22,35.8,16.6,4.9,13.3,5.0,-0.4,82,63,23,30.72,30.45,12,4,21,0.00
2013-11-23,15.1,7.1,0.4,2.1,-1.1,-4.4,80,69,51,30.88,30.62,7,2,14,0.00
2013-11-24,40.7,24.9,6.5,27.1,12.4,-1.6,72,60,38,30.63,29.91,13,5,26,0.00
2013-11-25,38.0,33.4,27.1,28.0,24.0,17.9,83,68,54,30.15,29.89,10,3,20,0.00
2013-11-26,27.0,18.7,9.5,18.0,8.2,3.8,78,64,48,30.41,30.15,15,6,26,0.00
2013-11-27,23.6,13.6,3.2,9.8,5.7,-0.8,86,71,53,30.41,29.97,9,2,20,0.00
2013-11-28,23.9,17.9,9.0,14.3,8.5,3.5,78,67,52,30.46,30.04,11,3,20,0.00
2013-11-29,35.1,21.8,7.1,20.1,12.6,2.3,81,68,51,30.46,30.03,12,3,24,0.00
2013-11-30,34.8,26.6,21.1,24.1,20.5,17.0,89,78,63,30.20,29.99,7,2,12,0.00
2013-12-1,31.1,25.9,20.8,23.3,20.2,17.5,87,79,69,30.20,29.83,4,1,7,0.00
2013-12-2,36.8,32.7,29.2,34.3,29.7,22.7,96,89,76,29.84,29.50,4,1,10,0.04
2013-12-3,33.0,31.0,27.1,33.0,30.7,26.6,100,99,96,29.77,29.57,6,2,11,0.00
2013-12-4,31.3,22.4,6.5,30.8,20.6,1.7,99,92,80,29.82,29.56,10,2,22,0.26
2013-12-5,6.9,2.3,-5.3,2.3,-4.3,-12.3,81,73,69,30.34,29.82,9,4,17,0.00
2013-12-6,1.0,-5.4,-9.6,-7.9,-12.6,-15.9,74,70,64,30.63,30.34,8,2,13,0.00
2013-12-7,1.0,-7.3,-14.8,-9.1,-14.7,-21.4,76,69,58,30.67,30.48,5,1,10,0.00
2013-12-8,11.1,3.8,-4.8,6.5,-0.8,-10.7,84,81,75,30.48,30.03,4,1,7,0.04
2013-12-9,13.1,-1.2,-8.4,8.0,-8.5,-15.5,83,71,61,30.14,29.73,15,3,18,0.00
2013-12-10,17.5,7.7,-1.7,11.8,0.7,-8.3,82,72,62,30.35,29.72,12,3,21,0.00
2013-12-11,6.7,-3.5,-11.7,0.6,-11.1,-17.9,76,69,58,30.55,30.18,8,2,12,0.00
2013-12-12,21.1,13.9,6.9,12.6,7.9,1.0,85,77,65,30.26,30.09,6,1,10,0.00
2013-12-13,13.8,10.7,7.1,7.7,5.4,1.8,84,79,74,30.27,30.07,12,4,17,0.00
2013-12-14,10.9,6.0,-1.3,4.4,0.3,-8.7,84,77,71,30.27,30.11,7,2,14,0.01
2013-12-15,4.2,0.6,-2.7,-0.9,-5.8,-10.3,79,74,67,30.17,30.03,7,2,11,0.02
2013-12-16,33.5,17.7,4.2,26.8,12.3,-1.3,85,79,70,30.04,29.89,8,2,19,0.00
2013-12-17,33.9,25.1,13.6,26.7,17.2,9.6,85,72,59,30.11,29.93,10,4,19,0.00
2013-12-18,39.6,26.9,14.3,28.8,19.5,9.9,84,74,62,29.98,29.63,12,2,19,0.00
2013-12-19,14.6,8.4,2.3,9.9,2.8,-3.0,85,77,71,30.09,29.89,13,5,20,0.00
2013-12-20,11.1,7.8,1.9,5.4,2.9,-2.8,85,80,74,30.06,29.86,6,2,11,0.00
2013-12-21,14.6,8.9,2.3,9.6,4.8,-2.2,88,83,79,30.04,29.84,7,2,11,0.00
2013-12-22,2.5,-1.4,-7.7,-2.0,-7.5,-14.9,81,75,69,30.35,30.01,9,4,16,0.00
2013-12-23,-5.1,-10.4,-16.1,-14.9,-19.3,-23.0,71,64,56,30.52,30.34,13,3,17,0.00
2013-12-24,15.7,1.6,-17.4,12.3,-4.9,-24.5,88,74,57,30.44,30.07,12,2,19,0.11
2013-12-25,29.8,21.4,15.7,27.3,17.5,12.4,95,85,72,30.16,30.00,13,2,21,0.03
2013-12-26,30.8,26.4,19.5,26.2,22.0,17.3,92,83,75,30.14,30.01,4,0,6,0.00
2013-12-27,41.1,32.2,20.9,32.5,27.2,18.2,91,82,66,30.12,29.91,8,2,15,0.00
2013-12-28,43.7,22.4,-3.1,31.5,17.9,-9.5,93,83,60,30.21,29.66,16,4,30,0.00
2013-12-29,-3.3,-9.6,-13.8,-9.5,-18.3,-22.2,74,65,52,30.42,30.22,12,4,24,0.00
2013-12-30,6.9,-1.7,-11.2,1.0,-7.9,-18.2,81,75,65,30.24,30.09,5,2,10,0.02
2013-12-31,-0.7,-5.6,-12.0,-6.7,-12.1,-18.7,78,73,67,30.37,30.21,7,2,11,0.03
2014-1-1,-1.1,-3.8,-8.2,-8.7,-12.7,-15.6,72,65,59,30.45,30.35,6,2,10,0.00
2014-1-2,-3.6,-10.7,-17.7,-10.7,-17.7,-24.5,76,71,60,30.50,30.25,3,1,8,0.00